FW4606 Weather Reports


time (UTC)temp
F
wind
direction
speed
knots
gust
knots
rain 1hr
in
rain 24hr
in
rain mn
in
humidity
%
barometer
mb
20260904184331 79 351 0.0 2.6 0.00 0.00 0.00 82 1013.2
20260904183831 79 351 0.0 2.6 0.00 0.00 0.00 81 1013.4
20260904183324 79 356 0.0 1.7 0.00 0.00 0.00 81 1013.4
20260904182824 78 5 0.0 2.6 0.00 0.00 0.00 83 1013.4
20260904182322 78 12 0.0 2.6 0.00 0.00 0.00 84 1013.4
20260904181821 78 94 0.0 2.6 0.00 0.00 0.00 85 1013.5
20260904181321 77 113 0.0 2.6 0.00 0.00 0.00 85 1013.4
20260904180820 76 16 0.0 1.7 0.00 0.00 0.00 85 1013.4
20260904180321 76 352 0.0 1.7 0.00 0.00 0.00 85 1013.4
20260904175821 76 324 0.0 2.6 0.00 0.00 0.00 86 1013.4
20260904175321 75 6 0.0 2.6 0.00 0.00 0.00 87 1013.4
20260904175053 75 337 0.0 2.6 0.00 0.00 0.00 87 1013.4
20260904174316 75 295 0.9 3.5 0.00 0.00 0.00 87 1013.4
20260904173817 74 9 0.9 3.5 0.00 0.00 0.00 87 1013.5
20260904173315 75 323 0.0 2.6 0.00 0.00 0.00 87 1013.4
20260904172815 75 0 0.0 1.7 0.00 0.00 0.00 87 1013.4
20260904172315 75 12 0.0 1.7 0.00 0.00 0.00 88 1013.5
20260904171815 75 4 0.0 1.7 0.00 0.00 0.00 89 1013.4
20260904171317 74 356 0.0 2.6 0.00 0.00 0.00 89 1013.4
20260904170816 74 43 0.0 2.6 0.00 0.00 0.00 90 1013.2
20260904170317 74 346 0.0 1.7 0.00 0.00 0.00 91 1013.2
20260904165812 74 350 0.0 2.6 0.00 0.00 0.00 91 1013.2
20260904165546 74 6 0.0 2.6 0.00 0.00 0.00 91 1013.1
20260904165048 74 356 0.0 1.7 0.00 0.00 0.00 92 1013.1
20260904164313 74 0 0.0 1.7 0.00 0.00 0.00 92 1013.1
20260904163812 74 7 0.0 1.7 0.00 0.00 0.00 92 1013.0
20260904163312 74 19 0.0 0.0 0.00 0.00 0.00 92 1012.9
20260904162812 74 354 0.0 0.0 0.00 0.00 0.00 92 1012.9
20260904162311 74 356 0.0 0.0 0.00 0.00 0.00 92 1012.8
20260904161813 74 352 0.0 0.0 0.00 0.00 0.00 92 1012.7
20260904161307 74 15 0.0 1.7 0.00 0.00 0.00 92 1012.7
20260904160807 74 12 0.0 1.7 0.00 0.00 0.00 92 1012.6
20260904160307 74 22 0.0 1.7 0.00 0.00 0.00 92 1012.5
20260904155807 74 79 0.0 0.9 0.00 0.00 0.00 93 1012.6
20260904155539 73 56 0.0 1.7 0.00 0.00 0.00 93 1012.6
20260904154808 73 24 0.0 1.7 0.00 0.00 0.00 93 1012.5
20260904154538 73 3 0.0 1.7 0.00 0.00 0.00 93 1012.5
20260904153808 73 4 0.0 1.7 0.00 0.00 0.00 93 1012.4
20260904153308 73 1 0.0 0.9 0.00 0.00 0.00 93 1012.4
20260904152805 73 1 0.0 0.9 0.00 0.00 0.00 93 1012.3
20260904152306 73 1 0.0 1.7 0.00 0.00 0.00 94 1012.2
20260904151803 73 1 0.0 1.7 0.00 0.00 0.00 93 1012.2
20260904151304 73 300 0.0 1.7 0.00 0.00 0.00 94 1012.1
20260904150804 73 301 0.0 1.7 0.00 0.00 0.00 93 1012.1
20260904150304 73 70 0.0 0.9 0.00 0.00 0.00 93 1012.0
20260904150034 73 67 0.0 0.9 0.00 0.00 0.00 93 1012.0
20260904145305 73 1 0.0 0.9 0.00 0.00 0.00 93 1011.9
20260904145036 72 343 0.0 0.9 0.00 0.00 0.00 93 1011.9
20260904144301 72 330 0.0 0.9 0.00 0.00 0.00 93 1011.8
20260904143801 72 330 0.0 0.9 0.00 0.00 0.00 93 1011.8
20260904143300 72 291 0.0 0.9 0.00 0.00 0.00 94 1011.7
20260904142800 72 292 0.0 0.9 0.00 0.00 0.00 93 1011.7
20260904142301 71 293 0.0 0.0 0.00 0.00 0.00 94 1011.5
20260904141759 71 293 0.0 0.9 0.00 0.00 0.00 94 1011.5
20260904141301 71 291 0.0 0.9 0.00 0.00 0.00 94 1011.3
20260904140801 71 335 0.0 0.9 0.00 0.00 0.00 94 1011.2
20260904140301 71 134 0.0 0.9 0.00 0.00 0.00 95 1011.2
20260904135757 70 134 0.0 2.6 0.00 0.00 0.00 95 1011.3
20260904135256 70 132 0.0 2.6 0.00 0.00 0.00 95 1011.2
20260904135026 70 96 0.0 1.7 0.00 0.00 0.00 95 1011.2
20260904134526 70 119 0.0 0.9 0.00 0.00 0.00 96 1011.3
20260904134418 69 95 0.0 0.9 0.00 0.00 0.00 95 1011.3
20260904133253 69 93 0.0 0.9 0.00 0.00 0.00 95 1011.3
20260904132748 69 356 0.0 0.9 0.00 0.00 0.00 95 1011.3
20260904132246 69 357 0.0 0.9 0.00 0.00 0.00 95 1011.3
20260904132019 69 356 0.0 0.9 0.00 0.00 0.00 96 1011.4
20260904131244 69 356 0.0 0.9 0.00 0.00 0.00 95 1011.3
20260904130744 69 39 0.0 0.0 0.00 0.00 0.00 95 1011.3
20260904130243 69 37 0.0 0.0 0.00 0.00 0.00 95 1011.4
20260904125749 69 37 0.0 0.0 0.00 0.00 0.00 95 1011.2
20260904125741 69 37 0.0 0.0 0.00 0.00 0.00 95 1011.3
20260904124737 69 37 0.0 0.9 0.00 0.00 0.00 95 1011.2
20260904124236 69 37 0.0 0.9 0.00 0.00 0.00 95 1011.1
20260904123736 69 44 0.0 0.0 0.00 0.00 0.00 95 1011.1
20260904123459 69 43 0.0 0.0 0.00 0.00 0.00 95 1011.1
20260904122729 69 43 0.0 0.0 0.00 0.00 0.00 95 1011.1
20260904122229 69 43 0.0 0.0 0.00 0.00 0.00 95 1011.0
20260904121727 69 43 0.0 0.0 0.00 0.00 0.00 94 1010.9
20260904121225 69 70 0.0 0.9 0.00 0.00 0.00 94 1010.8
20260904120724 69 70 0.0 0.9 0.00 0.00 0.00 94 1010.7
20260904120221 69 342 0.0 0.9 0.00 0.00 0.00 94 1010.7
20260904115723 69 341 0.0 0.9 0.00 0.00 0.00 94 1010.7
20260904115221 69 340 0.0 0.9 0.00 0.00 0.00 94 1010.7
20260904114953 69 318 0.0 0.0 0.00 0.00 0.00 94 1010.6
20260904114225 69 314 0.0 0.0 0.00 0.00 0.00 94 1010.6
20260904114220 69 318 0.0 0.0 0.00 0.00 0.00 94 1010.6
20260904113218 69 313 0.0 0.0 0.00 0.00 0.00 94 1010.5
20260904112724 69 312 0.0 0.9 0.00 0.00 0.00 94 1010.3
20260904112717 69 313 0.0 0.9 0.00 0.00 0.00 94 1010.4
20260904111715 69 285 0.0 0.9 0.00 0.00 0.00 94 1010.3
20260904111218 69 270 0.0 0.0 0.00 0.00 0.00 94 1010.2
20260904110720 70 18 0.0 0.9 0.00 0.00 0.00 93 1010.3
20260904110716 69 271 0.0 0.9 0.00 0.00 0.00 93 1010.2
20260904105712 70 116 0.0 1.7 0.00 0.00 0.00 93 1010.3
20260904105211 70 122 0.0 1.7 0.00 0.00 0.00 93 1010.3
20260904104712 70 139 0.0 0.9 0.00 0.00 0.00 93 1010.4
20260904104211 70 140 0.0 1.7 0.00 0.00 0.00 94 1010.3
20260904103708 70 6 0.0 1.7 0.00 0.00 0.00 94 1010.4
20260904103436 71 12 0.0 1.7 0.00 0.00 0.00 94 1010.3
20260904102706 71 12 0.0 1.7 0.00 0.00 0.00 94 1010.4
20260904102205 71 349 0.0 1.7 0.00 0.00 0.00 94 1010.3
20260904101707 71 350 0.0 2.6 0.00 0.00 0.00 95 1010.3
20260904101210 71 83 0.0 2.6 0.00 0.00 0.00 95 1010.2
20260904100706 72 350 0.0 1.7 0.00 0.00 0.00 95 1010.3
20260904100438 72 6 0.0 0.9 0.00 0.00 0.00 95 1010.1
20260904095710 72 57 0.0 1.7 0.00 0.00 0.00 95 1010.1
20260904095706 72 6 0.0 1.7 0.00 0.00 0.00 95 1010.2
20260904094707 72 329 0.0 0.9 0.00 0.00 0.00 95 1010.2
20260904094206 72 103 0.0 1.7 0.00 0.00 0.00 95 1010.0
20260904093701 72 281 0.0 1.7 0.00 0.00 0.00 95 1010.2
20260904093433 72 165 0.0 1.7 0.00 0.00 0.00 95 1010.2
20260904092705 72 165 0.0 1.7 0.00 0.00 0.00 95 1010.1
20260904092203 72 340 0.0 1.7 0.00 0.00 0.00 95 1010.3
20260904091700 72 115 0.0 1.7 0.00 0.00 0.00 95 1010.0
20260904091200 72 41 0.0 0.9 0.00 0.00 0.00 95 1010.2
20260904090657 72 39 0.0 0.9 0.00 0.00 0.00 95 1010.2
20260904090157 73 40 0.0 0.9 0.00 0.00 0.00 95 1010.2
20260904085659 73 91 0.0 0.9 0.00 0.00 0.00 95 1010.2
20260904085156 73 342 0.0 0.9 0.00 0.00 0.00 95 1010.2
20260904084656 73 324 0.9 2.6 0.00 0.00 0.00 95 1009.8
20260904084155 72 113 0.9 2.6 0.00 0.00 0.00 95 1010.1
20260904083654 72 359 0.0 1.7 0.00 0.00 0.00 95 1009.7
20260904083152 72 142 0.0 0.0 0.00 0.00 0.00 95 1009.5
20260904082655 72 143 0.0 0.0 0.00 0.00 0.00 95 1009.3
20260904082151 72 143 0.0 0.0 0.00 0.00 0.00 95 1009.2
20260904081653 72 142 0.0 0.0 0.00 0.00 0.00 94 1009.3
20260904081151 72 142 0.0 0.0 0.00 0.00 0.00 94 1009.3
20260904080646 73 142 0.0 0.0 0.00 0.00 0.00 94 1009.3
20260904080139 73 142 0.0 0.0 0.00 0.00 0.00 94 1009.3
20260904075906 73 143 0.0 0.0 0.00 0.00 0.00 94 1009.3
20260904075358 73 143 0.0 0.0 0.00 0.00 0.00 94 1009.3
20260904074622 73 142 0.0 0.0 0.00 0.00 0.00 94 1009.2
20260904074116 73 143 0.0 0.0 0.00 0.00 0.00 94 1009.2
20260904073610 73 142 0.0 0.0 0.00 0.00 0.00 94 1009.2
20260904073104 73 142 0.0 0.0 0.00 0.00 0.00 93 1009.2
20260904072558 73 143 0.0 0.0 0.00 0.00 0.00 93 1009.3
20260904072322 73 142 0.0 0.0 0.00 0.00 0.00 93 1009.3
20260904071817 74 143 0.0 0.0 0.00 0.00 0.00 92 1009.3
20260904071039 74 142 0.0 0.0 0.00 0.00 0.00 92 1009.3
20260904070534 74 143 0.0 0.0 0.00 0.00 0.00 92 1009.3
20260904070028 74 143 0.0 0.0 0.00 0.00 0.00 92 1009.5
20260904065522 74 142 0.0 0.9 0.00 0.00 0.00 92 1009.5
20260904065016 74 142 0.0 0.9 0.00 0.00 0.00 92 1009.5
20260904064510 74 142 0.0 0.0 0.00 0.00 0.00 92 1009.5
20260904064004 74 142 0.0 0.0 0.00 0.00 0.00 92 1009.5
20260904063458 74 142 0.0 0.0 0.00 0.00 0.00 92 1009.5
20260904062951 74 142 0.0 0.0 0.00 0.00 0.00 91 1009.5
20260904062446 74 142 0.0 0.9 0.00 0.00 0.00 91 1009.5
20260904061944 74 167 0.0 0.0 0.00 0.00 0.00 91 1009.5
20260904061940 74 142 0.0 0.9 0.00 0.00 0.00 91 1009.5
20260904061432 75 167 0.0 0.9 0.00 0.00 0.00 91 1009.5
20260904060422 75 169 0.0 0.9 0.00 0.00 0.00 91 1009.6
20260904055916 75 89 0.0 0.9 0.00 0.00 0.00 90 1009.6
20260904055643 75 86 0.0 0.9 0.00 0.00 0.00 90 1009.5
20260904055137 75 86 0.0 0.0 0.00 0.00 0.00 90 1009.6
20260904054358 75 100 0.0 0.0 0.00 0.00 0.00 90 1009.5
20260904053851 75 98 0.0 0.9 0.00 0.00 0.00 89 1009.5
20260904053346 75 98 0.0 0.9 0.00 0.00 0.00 89 1009.5
20260904053113 76 136 0.0 0.0 0.00 0.00 0.00 89 1009.6
20260904052334 76 143 0.0 0.0 0.00 0.00 0.00 89 1009.5
20260904051828 76 144 0.0 0.9 0.00 0.00 0.00 88 1009.3
20260904051322 76 143 0.0 0.9 0.00 0.00 0.00 88 1009.2
20260904050816 76 152 0.0 0.9 0.00 0.00 0.00 88 1009.2
20260904050540 76 83 0.0 0.9 0.00 0.00 0.00 87 1009.3
20260904045803 76 84 0.0 0.9 0.00 0.00 0.00 87 1009.5
20260904045257 77 94 0.0 0.9 0.00 0.00 0.00 87 1009.3
20260904044750 77 114 0.0 0.9 0.00 0.00 0.00 87 1009.3
20260904044245 77 59 0.0 1.7 0.00 0.00 0.00 86 1009.2
20260904043739 77 85 0.0 1.7 0.00 0.00 0.00 86 1009.2
20260904043504 77 70 0.0 0.9 0.00 0.00 0.00 86 1009.2
20260904042959 77 63 0.0 0.9 0.00 0.00 0.00 85 1009.3
20260904042453 77 79 0.0 0.0 0.00 0.00 0.00 85 1009.3
20260904041715 77 81 0.0 0.0 0.00 0.00 0.00 85 1009.2
20260904041440 78 79 0.0 0.0 0.00 0.00 0.00 84 1009.2
20260904040703 78 41 0.0 0.0 0.00 0.00 0.00 84 1009.2
20260904040429 78 41 0.0 0.9 0.00 0.00 0.00 83 1009.2
20260904035651 78 41 0.0 0.9 0.00 0.00 0.00 83 1009.2
20260904035144 78 49 0.0 0.0 0.00 0.00 0.00 83 1009.1
20260904034639 78 49 0.0 0.0 0.00 0.00 0.00 83 1009.0
20260904034133 79 49 0.0 0.0 0.00 0.00 0.00 82 1009.0
20260904033858 79 49 0.0 2.6 0.00 0.00 0.00 82 1009.0
20260904033121 79 32 0.0 2.6 0.00 0.00 0.00 81 1009.1
20260904032615 79 308 0.0 1.7 0.00 0.00 0.00 81 1009.0
20260904032109 79 309 0.0 1.7 0.00 0.00 0.00 81 1008.9
20260904031603 79 215 0.0 1.7 0.00 0.00 0.00 80 1008.9
20260904031059 80 205 0.0 1.7 0.00 0.00 0.00 80 1008.9
20260904031053 80 172 0.0 1.7 0.00 0.00 0.00 80 1008.8
20260904030045 80 104 0.9 2.6 0.00 0.00 0.00 80 1008.9
20260904025538 80 173 0.0 2.6 0.00 0.00 0.00 79 1008.8
20260904025033 80 235 0.0 1.7 0.00 0.00 0.00 79 1008.8
20260904024759 80 169 0.0 1.7 0.00 0.00 0.00 79 1008.9
20260904024020 80 161 0.0 1.7 0.00 0.00 0.00 78 1008.8
20260904023516 80 148 0.0 1.7 0.00 0.00 0.00 78 1008.8
20260904023009 80 113 0.0 1.7 0.00 0.00 0.00 77 1008.8
20260904022503 81 245 0.0 1.7 0.00 0.00 0.00 77 1008.7
20260904021957 81 205 0.0 2.6 0.00 0.00 0.00 77 1008.8
20260904021450 81 152 0.9 2.6 0.00 0.00 0.00 76 1008.7
20260904020948 81 108 0.9 2.6 0.00 0.00 0.00 76 1008.7
20260904020943 81 163 0.0 2.6 0.00 0.00 0.00 76 1008.7
20260904015932 81 205 0.0 0.9 0.00 0.00 0.00 75 1008.7
20260904015426 82 155 0.0 1.7 0.00 0.00 0.00 74 1008.8
20260904014921 82 188 0.0 1.7 0.00 0.00 0.00 74 1008.8
20260904014415 82 245 0.0 1.7 0.00 0.00 0.00 73 1008.8
20260904013909 82 184 0.0 1.7 0.00 0.00 0.00 73 1008.8
20260904013402 83 112 0.0 0.9 0.00 0.00 0.00 73 1008.8
20260904012857 83 87 0.0 0.9 0.00 0.00 0.00 72 1008.8
20260904012350 83 96 0.0 0.9 0.00 0.00 0.00 72 1008.7
20260904011846 83 120 0.0 0.9 0.00 0.00 0.00 73 1008.7
20260904011345 83 120 0.0 0.0 0.00 0.00 0.00 72 1008.7
20260904010845 83 120 0.0 0.0 0.00 0.00 0.00 72 1008.6
20260904010343 83 120 0.0 0.0 0.00 0.00 0.00 71 1008.6
20260904005844 83 120 0.0 0.0 0.00 0.00 0.00 71 1008.6
20260904005343 83 120 0.0 0.0 0.00 0.00 0.00 71 1008.6
20260904004844 83 120 0.0 2.6 0.00 0.00 0.00 70 1008.5
20260904004341 83 110 0.0 2.6 0.00 0.00 0.00 70 1008.5
20260904003840 84 195 0.0 0.9 0.00 0.00 0.00 70 1008.4
20260904003338 84 168 0.0 0.9 0.00 0.00 0.00 70 1008.4
20260904002839 84 205 0.0 0.9 0.00 0.00 0.00 69 1008.5
20260904002338 84 134 0.0 2.6 0.00 0.00 0.00 68 1008.5
20260904002111 84 172 0.0 2.6 0.00 0.00 0.00 68 1008.5
20260904001336 84 110 0.9 2.6 0.00 0.00 0.00 68 1008.5
20260904000834 84 169 0.9 3.5 0.00 0.00 0.00 68 1008.5
20260904000333 84 166 0.9 3.5 0.00 0.00 0.00 67 1008.4
20260903235831 85 49 0.9 1.7 0.00 0.00 0.00 67 1008.4
20260903235330 85 212 0.0 2.6 0.00 0.00 0.00 67 1008.4
20260903234830 85 259 0.9 3.5 0.00 0.00 0.00 66 1008.4
20260903234602 85 225 0.9 3.5 0.00 0.00 0.00 66 1008.4
20260903234100 85 341 0.0 3.5 0.00 0.00 0.00 66 1008.4
20260903233327 85 146 0.9 5.2 0.00 0.00 0.00 66 1008.3
20260903232825 85 169 0.9 5.2 0.00 0.00 0.00 65 1008.2
20260903232330 86 146 0.9 3.5 0.00 0.00 0.00 64 1008.1
20260903231829 86 130 0.9 4.3 0.00 0.00 0.00 63 1008.0
20260903231330 87 138 1.7 4.3 0.00 0.00 0.00 62 1008.0
20260903231059 87 113 0.9 4.3 0.00 0.00 0.00 61 1008.0
20260903230326 87 204 0.9 3.5 0.00 0.00 0.00 61 1007.9
20260903225827 87 197 0.9 3.5 0.00 0.00 0.00 61 1007.9
20260903225557 87 184 0.9 3.5 0.00 0.00 0.00 63 1007.7
20260903224827 86 318 0.9 4.3 0.00 0.00 0.00 63 1007.8
20260903224320 86 57 0.9 4.3 0.00 0.00 0.00 63 1007.9
20260903223820 86 99 1.7 6.1 0.00 0.00 0.00 62 1008.0
20260903223320 86 71 1.7 7.0 0.00 0.00 0.00 62 1008.0
20260903222820 86 205 0.9 7.0 0.00 0.00 0.00 62 1008.1
20260903222321 86 154 0.9 6.1 0.00 0.00 0.00 62 1008.1
20260903221819 87 99 0.9 5.2 0.00 0.00 0.00 61 1008.1
20260903221319 87 115 0.9 4.3 0.00 0.00 0.00 61 1008.2
20260903220820 87 195 0.9 3.5 0.00 0.00 0.00 61 1008.2
20260903220321 87 240 0.9 6.1 0.00 0.00 0.00 67 1008.3
20260903220048 87 238 0.9 6.1 0.00 0.00 0.00 67 1008.2
20260903215549 87 222 0.0 3.5 0.00 0.00 0.00 68 1008.1
20260903214817 86 36 0.9 6.1 0.00 0.00 0.00 68 1008.0
20260903214313 86 158 0.9 6.1 0.00 0.00 0.00 68 1008.0
20260903214047 86 345 0.9 6.1 0.00 0.00 0.00 69 1008.1
20260903213313 86 108 0.9 6.1 0.00 0.00 0.00 68 1008.2
20260903212814 85 129 0.9 2.6 0.00 0.00 0.00 71 1008.1
20260903212315 85 115 0.9 3.5 0.00 0.00 0.00 71 1008.2
20260903211815 85 262 0.9 4.3 0.00 0.00 0.00 70 1008.3
20260903211315 85 106 1.7 6.1 0.00 0.00 0.00 69 1008.3
20260903211044 85 207 1.7 6.1 0.00 0.00 0.00 68 1008.2
20260903210315 85 253 0.9 3.5 0.00 0.00 0.00 68 1008.3
20260903205809 85 211 0.9 4.3 0.00 0.00 0.00 69 1008.3
20260903205309 85 264 0.9 4.3 0.00 0.00 0.00 67 1008.3
20260903204811 85 239 0.9 2.6 0.00 0.00 0.00 67 1008.3
20260903204310 85 119 0.9 3.5 0.00 0.00 0.00 66 1008.5
20260903203810 86 102 0.9 6.1 0.00 0.00 0.00 64 1008.5
20260903203310 87 235 1.7 6.1 0.00 0.00 0.00 62 1008.5
20260903202811 87 44 1.7 6.1 0.00 0.00 0.00 63 1008.6
20260903202311 87 214 1.7 6.1 0.00 0.00 0.00 64 1008.6
20260903201810 87 236 1.7 5.2 0.00 0.00 0.00 62 1008.6
20260903201305 87 200 1.7 7.0 0.00 0.00 0.00 61 1008.8
20260903200805 87 257 1.7 7.0 0.00 0.00 0.00 60 1009.0
20260903200305 88 208 1.7 6.1 0.00 0.00 0.00 60 1009.0
20260903195807 88 176 1.7 6.1 0.00 0.00 0.00 61 1009.0
20260903195307 88 188 2.6 10.4 0.00 0.00 0.00 59 1009.0
20260903195039 89 224 1.7 10.4 0.00 0.00 0.00 58 1009.1
20260903194305 89 266 1.7 7.0 0.00 0.00 0.00 59 1009.1
20260903193807 89 226 2.6 8.7 0.00 0.00 0.00 58 1009.2
20260903193306 89 96 2.6 8.7 0.00 0.00 0.00 57 1009.3
20260903192803 89 162 2.6 7.0 0.00 0.00 0.00 57 1009.2
20260903192302 89 162 1.7 6.1 0.00 0.00 0.00 59 1009.2
20260903191803 89 312 2.6 8.7 0.00 0.00 0.00 59 1009.1
20260903191302 89 169 2.6 8.7 0.00 0.00 0.00 56 1009.1
20260903190803 90 119 1.7 6.1 0.00 0.00 0.00 57 1009.3
20260903190307 89 204 2.6 11.3 0.00 0.00 0.00 58 1009.2
20260903185805 88 257 2.6 11.3 0.00 0.00 0.00 58 1009.3
20260903185306 88 95 1.7 7.0 0.00 0.00 0.00 59 1009.3
20260903184806 88 336 2.6 6.1 0.00 0.00 0.00 59 1009.2